Location: Four Corners
(38.2757°N, 122.4608°W)
Time: 11:50:33
(UTC+00:00)

Lacrosse 5 rocket - Pass Details

Date: 08 December 2019
Orbit: 465 x 632 km, 57.0° (Epoch: 26 January)

Event Time Altitude Azimuth Distance (km) Brightness Sun altitude
Rises 02:49:32 0° 267° (W) 2,797 6.4 -22.9°
Reaches altitude 10° 02:52:36 10° 289° (WNW) 1,863 4.8 -23.5°
Maximum altitude 02:55:14 16° 328° (NNW) 1,491 3.7 -24.0°
Enters shadow 02:56:16 15° 346° (NNW) 1,540 3.6 -24.2°
